EC1ABR Weather Reports


time (UTC)temp
F
wind
direction
speed
knots
gust
knots
rain 1hr
in
rain 24hr
in
rain mn
in
humidity
%
barometer
mb
20260503201803 55 0 0.0 0.0 0.00 0.00 0.00 92 1014.1
20260503200904 55 0 0.0 0.0 0.00 0.00 0.00 91 1014.2
20260503200004 55 0 0.0 0.0 0.00 0.00 0.00 91 1014.1
20260503195403 55 0 0.0 0.0 0.00 0.00 0.00 91 1014.2
20260503194503 55 0 0.0 0.0 0.00 0.00 0.00 90 1014.2
20260503193603 55 0 0.0 0.0 0.00 0.00 0.00 90 1014.2
20260503192703 55 0 0.0 0.0 0.00 0.00 0.00 90 1014.3
20260503191804 55 0 0.0 0.0 0.00 0.00 0.00 89 1014.3
20260503190903 55 0 0.0 0.0 0.00 0.00 0.00 88 1014.3
20260503190004 55 0 0.0 0.0 0.00 0.00 0.00 88 1014.2
20260503185403 55 0 0.0 0.0 0.00 0.00 0.00 87 1014.2
20260503184503 55 0 0.0 0.0 0.00 0.00 0.00 87 1014.3
20260503183603 55 0 0.0 0.0 0.00 0.00 0.00 87 1014.2
20260503182704 55 0 0.0 0.0 0.00 0.00 0.00 86 1014.0
20260503182017 55 0 0.0 0.0 0.00 0.00 0.00 86 1014.0
20260503180903 56 0 0.0 0.0 0.00 0.00 0.00 86 1013.9
20260503180217 56 0 0.0 0.0 0.00 0.00 0.00 85 1013.8
20260503175403 56 0 0.0 0.0 0.00 0.00 0.00 85 1014.0
20260503174503 56 0 0.0 0.0 0.00 0.00 0.00 85 1013.8
20260503173604 56 0 0.0 0.0 0.00 0.00 0.00 86 1013.5
20260503172703 56 0 0.0 0.0 0.00 0.00 0.00 86 1013.5
20260503171804 56 0 0.0 0.0 0.00 0.00 0.00 87 1013.3
20260503170903 56 0 0.0 0.0 0.00 0.00 0.00 88 1013.2
20260503160213 58 0 0.0 0.0 0.00 0.00 0.00 80 1013.5
20260503150903 60 0 0.0 0.0 0.00 0.00 0.00 75 1013.3
20260503130903 60 0 0.0 0.0 0.00 0.00 0.00 72 1006.9
20260503100217 57 0 0.0 0.0 0.00 0.00 0.00 90 1007.3
20260503080903 56 0 0.0 0.0 0.00 0.00 0.00 99 1006.4
20260503072703 55 0 0.0 0.0 0.00 0.00 0.00 99 1005.8
20260503072014 55 0 0.0 0.0 0.00 0.00 0.00 99 1005.9
20260503071116 55 0 0.0 0.0 0.00 0.00 0.00 99 1005.9
20260503070213 54 0 0.0 0.0 0.00 0.00 0.00 99 1005.8
20260503054503 54 0 0.0 0.0 0.00 0.00 0.00 99 1005.5
20260503053603 54 0 0.0 0.0 0.00 0.00 0.00 99 1005.5
20260503052703 54 0 0.0 0.0 0.00 0.00 0.00 99 1005.5
20260503051803 54 0 0.0 0.0 0.00 0.00 0.00 99 1005.6
20260503050903 54 0 0.0 0.0 0.00 0.00 0.00 99 1005.5
20260503050005 54 0 0.0 0.0 0.00 0.00 0.00 99 1005.7
20260503045403 54 0 0.0 0.0 0.00 0.00 0.00 99 1005.7
20260503044503 54 0 0.0 0.0 0.00 0.00 0.00 99 1005.7
20260503043603 54 0 0.0 0.0 0.00 0.00 0.00 99 1005.7
20260503042703 54 0 0.0 0.0 0.00 0.00 0.00 99 1005.8
20260503041803 54 0 0.0 0.0 0.00 0.00 0.00 99 1005.7
20260503040903 54 0 0.0 0.0 0.00 0.00 0.00 99 1005.8
20260503040004 54 0 0.0 0.0 0.00 0.00 0.00 99 1005.9
20260503035403 54 0 0.0 0.0 0.00 0.00 0.00 99 1005.9
20260503034503 54 0 0.0 0.0 0.00 0.00 0.00 99 1006.0
20260503033603 54 0 0.0 0.0 0.00 0.00 0.00 99 1006.1
20260503032703 54 0 0.0 0.0 0.00 0.00 0.00 99 1006.1
20260503031804 54 0 0.0 0.0 0.00 0.00 0.00 99 1006.2
20260503031114 54 0 0.0 0.0 0.00 0.00 0.00 99 1006.4
20260503030003 54 0 0.0 0.0 0.00 0.00 0.00 99 1006.2
20260503025403 54 0 0.0 0.0 0.00 0.00 0.00 99 1006.5
20260503024504 54 0 0.0 0.0 0.00 0.00 0.00 99 1006.6
20260503023603 54 0 0.0 0.0 0.00 0.00 0.00 99 1006.6
20260503022915 54 0 0.0 0.0 0.00 0.00 0.00 99 1006.6
20260503022017 54 0 0.0 0.0 0.00 0.00 0.00 99 1006.7
20260503020903 54 0 0.0 0.0 0.00 0.00 0.00 99 1006.8
20260503020217 54 0 0.0 0.0 0.00 0.00 0.00 99 1006.8
20260503015403 54 0 0.0 0.0 0.00 0.00 0.00 99 1006.8
20260503014503 54 0 0.0 0.0 0.00 0.00 0.00 99 1007.0
20260503013603 54 0 0.0 0.0 0.00 0.00 0.00 99 1007.0
20260503012703 54 0 0.0 0.0 0.00 0.00 0.00 99 1007.3
20260503011803 54 0 0.0 0.0 0.00 0.00 0.00 99 1007.4
20260503010904 54 0 0.0 0.0 0.00 0.00 0.00 99 1007.5
20260503010004 54 0 0.0 0.0 0.00 0.00 0.00 99 1007.8
20260503005614 54 0 0.0 0.0 0.00 0.00 0.00 99 1007.7
20260503004503 54 0 0.0 0.0 0.00 0.00 0.00 99 1007.9
20260503003603 54 0 0.0 0.0 0.00 0.00 0.00 99 1007.9
20260503002704 54 0 0.0 0.0 0.00 0.00 0.00 99 1008.0
20260503001803 54 0 0.0 0.0 0.00 0.00 0.00 96 1008.1
20260503000903 54 0 0.0 0.0 0.00 0.00 0.00 96 1008.3
20260503000003 54 0 0.0 0.0 0.00 0.00 0.00 96 1008.2
20260502235403 54 0 0.0 0.0 0.00 0.00 0.00 96 1008.5
20260502234503 54 0 0.0 0.0 0.00 0.00 0.00 96 1008.5
20260502233604 55 0 0.0 0.0 0.00 0.00 0.00 96 1008.5
20260502232704 55 0 0.0 0.0 0.00 0.00 0.00 95 1008.6
20260502231804 55 0 0.0 0.0 0.00 0.00 0.00 95 1008.6
20260502231116 55 0 0.0 0.0 0.00 0.00 0.00 95 1008.8
20260502230007 55 0 0.0 0.0 0.00 0.00 0.00 95 1009.0
20260502225403 55 0 0.0 0.0 0.00 0.00 0.00 95 1008.9
20260502224504 55 0 0.0 0.0 0.00 0.00 0.00 95 1009.2
20260502223603 55 0 0.0 0.0 0.00 0.00 0.00 94 1009.4
20260502222703 55 0 0.0 0.0 0.00 0.00 0.00 94 1009.5
20260502221803 56 0 0.0 0.0 0.00 0.00 0.00 94 1009.5
20260502220903 56 0 0.0 0.0 0.00 0.00 0.00 94 1009.7
20260502220003 56 0 0.0 0.0 0.00 0.00 0.00 94 1009.7
20260502215403 56 0 0.0 0.0 0.00 0.00 0.00 94 1009.8
20260502214505 56 0 0.0 0.0 0.00 0.00 0.00 94 1009.7
20260502213603 56 0 0.0 0.0 0.00 0.00 0.00 94 1009.5
20260502212703 56 0 0.0 0.0 0.00 0.00 0.00 94 1009.6
20260502211803 56 0 0.0 0.0 0.00 0.00 0.00 93 1009.6
20260502210903 57 0 0.0 0.0 0.00 0.00 0.00 93 1009.2
20260502210004 57 0 0.0 0.0 0.00 0.00 0.00 93 1009.1
20260502205403 57 0 0.0 0.0 0.00 0.00 0.00 93 1009.0
20260502204503 57 0 0.0 0.0 0.00 0.00 0.00 92 1009.0
20260502203816 57 0 0.0 0.0 0.00 0.00 0.00 92 1009.0
20260502202703 57 0 0.0 0.0 0.00 0.00 0.00 92 1008.9